[[{"header":{"parameterUnit":"m.s-1","parameterCategory":1,"la1":30.2991,"la2":30.254,"lo1":-89.0895,"lo2":-89.0444,"dy":0.0017,"dx":0.0017,"nx":28,"ny":28,"refTime":"2023-08-26T09:00:00:Z","depth":0,"parameterNumber":2,"parameterNumberName":"U-component_of_WINDS"},"data":[0,0,0,0,0,0,0,0,0,0,0,0,0,0,0,0,0,0,0,0,0,0,0,0,0,0,0,0,0,0,0,0,0,0,0,0,0,0,0,0,0,0,0,0,0,0,0,0,0,0,0,0,0,0,0,0,0,0,1.7239,1.7241,0,1.7398,1.74,1.7401,1.7425,1.7423,1.7422,1.7421,1.7582,1.7587,1.7593,0,0,0,0,0,0,0,0,0,0,0,0,0,1.6957,1.6962,1.7239,1.7241,1.7243,1.7398,1.74,1.7402,1.7425,1.7423,1.7421,1.742,1.758,1.7587,1.7594,0,0,0,0,0,0,0,0,0,0,0,0,0,1.7094,1.6964,1.7239,1.7273,1.7278,1.7397,1.74,1.7402,1.7425,1.7423,1.7421,1.7419,1.7578,1.7586,1.7594,1.769,0,0,1.762,1.7624,0,0,0,0,0,0,0,0,1.7086,1.7104,1.7266,1.7271,1.7277,1.7389,1.7359,1.7499,1.7426,1.7369,1.742,1.7418,1.752,1.7533,1.7567,1.7697,1.7704,1.7621,1.7626,1.763,1.7632,0,0,0,0,0,0,0,1.7077,1.7098,1.7302,1.7269,1.7275,1.7281,1.7298,1.7386,1.7455,1.7374,1.7376,1.7395,1.7522,1.7559,1.7571,1.7707,1.7621,1.7628,1.7634,1.7637,1.7924,1.7927,0,0,0,0,0,0,1.7061,1.7089,1.7297,1.7307,1.7174,1.7288,1.7307,1.7355,1.7454,1.7467,1.7396,1.7395,1.7545,1.7561,1.7577,1.7695,1.763,1.7638,1.7643,1.7922,1.7925,1.7928,0,0,0,0,0,0,1.7055,1.7079,1.7291,1.7199,1.7226,1.7295,1.7349,1.736,1.7396,1.7471,1.7483,1.7421,1.7544,1.7565,1.7662,1.7701,1.7641,1.7649,1.7919,1.7923,1.7926,1.7932,0,0,0,0,0,0,1.7047,1.7077,1.7113,1.7199,1.7231,1.7373,1.7352,1.7364,1.7411,1.7411,1.7497,1.751,1.7544,1.7649,1.767,1.7712,1.7656,1.7915,1.792,1.7925,1.7929,1.7936,1.7942,0,0,0,0,0,1.7036,1.7108,1.7115,1.714,1.7278,1.7375,1.7393,1.7432,1.7414,1.7452,1.75,1.7507,1.7694,1.7659,1.7683,1.7727,1.7913,1.7919,1.7925,1.7926,1.7934,1.7942,0,0,0,0,0,0,1.7024,1.712,1.7129,1.7231,1.7295,1.7379,1.7427,1.7439,1.7509,1.7506,1.7551,1.757,1.7665,1.7706,1.7666,1.7825,1.7802,1.7813,1.7795,1.7803,1.781,1.7797,1.7663,0,0,0,0,0,1.7034,1.7104,1.7184,1.7267,1.7298,1.7357,1.7401,1.7425,1.7493,1.752,1.7575,1.764,1.7714,1.7761,1.7833,1.7936,1.7955,1.7978,1.7985,1.799,1.7998,1.8056,1.8067,1.7947,1.7947,1.7946,0,0,1.7053,1.7115,1.7156,1.7266,1.7318,1.739,1.738,1.7456,1.751,1.7531,1.7626,1.7669,1.7745,1.7845,1.7892,1.7883,1.8036,1.7997,1.8,1.8006,1.8063,1.8074,1.8084,1.795,1.795,1.7949,0,0,1.7126,1.7179,1.7254,1.7307,1.7387,1.7426,1.7444,1.7527,1.7556,1.7653,1.767,1.7736,1.7861,1.7915,1.7958,1.8054,1.8063,1.8076,1.8109,1.8165,1.8175,1.8183,1.8217,1.8229,1.8085,1.8085,1.8085,0,1.714,1.7249,1.7291,1.7367,1.7415,1.7439,1.7515,1.7565,1.7663,1.7696,1.7684,1.7843,1.7896,1.8009,1.8033,1.8068,1.809,1.8065,1.817,1.8179,1.8188,1.8221,1.8233,1.8086,1.8085,1.8085,1.8085,0,1.7263,1.7339,1.7389,1.7485,1.7539,1.7615,1.7668,1.7717,1.7738,1.7778,1.7877,1.7941,1.8027,1.8056,1.8077,1.8173,1.8164,1.8161,1.8138,1.82,1.8231,1.8244,1.8087,1.8087,1.8086,1.8086,0,0,1.7329,1.7449,1.7467,1.7511,1.7602,1.7661,1.7739,1.7823,1.7865,1.7933,1.7999,1.8106,1.8103,1.8153,1.818,1.8229,1.8301,1.822,1.8223,1.8232,1.8411,1.8412,1.8426,1.8308,1.8311,1.8313,1.8405,0,1.7412,1.7551,1.7591,1.7708,1.7779,1.7804,1.7871,1.7935,1.7975,1.8041,1.8086,1.8161,1.8152,1.8183,1.8233,1.8281,1.8337,1.8276,1.837,1.8373,1.8349,1.8443,1.8444,1.8527,1.8417,1.8419,1.8421,0,1.7526,1.7597,1.7721,1.7804,1.7835,1.7895,1.7976,1.8039,1.8112,1.8138,1.8195,1.8218,1.83,1.8274,1.8388,1.8345,1.8387,1.8417,1.8421,1.843,1.8399,1.8454,1.8555,1.8567,1.8441,1.8439,1.8438,0,1.7561,1.7688,1.7779,1.7816,1.7916,1.7957,1.8001,1.8071,1.812,1.8191,1.8223,1.8303,1.8346,1.8408,1.8452,1.8429,1.8563,1.854,1.8587,1.8585,1.8612,1.8609,1.872,1.8641,1.864,1.864,1.864,0,1.7648,1.7723,1.7797,1.7852,1.7937,1.7984,1.8066,1.8111,1.8174,1.8239,1.8266,1.8326,1.8382,1.845,1.8486,1.8575,1.8594,1.8618,1.8626,1.8615,1.8612,1.8641,1.8636,1.8643,1.8643,1.8642,1.8641,0,1.7701,1.7754,1.7854,1.7941,1.7965,1.8023,1.8097,1.8153,1.8195,1.8277,1.8299,1.8365,1.8447,1.8498,1.8602,1.8626,1.8723,1.873,1.8699,1.8702,1.8746,1.874,1.8878,1.8899,1.8806,1.8807,1.8807,0,1.7753,1.7811,1.7904,1.795,1.7994,1.8067,1.8118,1.8166,1.8218,1.8306,1.8351,1.8434,1.8503,1.8633,1.869,1.877,1.8779,1.8822,1.8791,1.8778,1.8779,1.8774,1.878,1.8826,1.8827,1.8827,1.8828,0,1.7838,1.7862,1.7933,1.8014,1.8074,1.814,1.8206,1.8242,1.8302,1.8358,1.8442,1.8496,1.8603,1.8686,1.8771,1.8816,1.8832,1.8838,1.8852,1.8841,1.882,1.8831,1.8712,1.8834,1.8833,1.8833,1.8832,1.8832,1.7891,1.7945,1.8019,1.8098,1.8153,1.8215,1.8271,1.8322,1.8393,1.8483,1.8509,1.8597,1.8669,1.8786,1.8833,1.8902,1.8896,1.8918,1.8923,1.8928,1.8928,1.881,1.8918,1.8918,1.8918,1.8918,1.8918,0,1.7977,1.8027,1.81,1.8192,1.8254,1.8266,1.834,1.8391,1.8469,1.8535,1.8604,1.8701,1.8782,1.8847,1.893,1.8974,1.8983,1.8994,1.8991,1.9001,1.8929,1.8907,1.8985,1.8985,1.8985,1.8985,1.8985,1.8985,1.8029,1.812,1.8153,1.8272,1.8322,1.8408,1.845,1.8507,1.8561,1.8668,1.8736,1.8778,1.8845,1.8933,1.9008,1.9026,1.9055,1.9064,1.9082,1.9013,1.9006,1.8999,1.8979,1.907,1.907,1.9148,1.9149,1.9149]},{"header":{"parameterUnit":"m.s-1","parameterCategory":1,"la1":30.2991,"la2":30.254,"lo1":-89.0895,"lo2":-89.0444,"dy":0.0017,"dx":0.0017,"nx":28,"ny":28,"refTime":"2023-08-26T09:00:00:Z","depth":0,"parameterNumber":3,"parameterNumberName":"V-component_of_WINDS"},"data":[0,0,0,0,0,0,0,0,0,0,0,0,0,0,0,0,0,0,0,0,0,0,0,0,0,0,0,0,0,0,0,0,0,0,0,0,0,0,0,0,0,0,0,0,0,0,0,0,0,0,0,0,0,0,0,0,0,0,2.1331,2.133,0,2.1298,2.1298,2.1297,2.1231,2.123,2.1229,2.1227,2.1195,2.1196,2.1196,0,0,0,0,0,0,0,0,0,0,0,0,0,2.1338,2.1338,2.1331,2.133,2.133,2.1298,2.1298,2.1297,2.1231,2.123,2.1228,2.1227,2.1195,2.1196,2.1196,0,0,0,0,0,0,0,0,0,0,0,0,0,2.1323,2.1338,2.1331,2.1293,2.129,2.1298,2.1298,2.1297,2.1232,2.123,2.1228,2.1226,2.1195,2.1196,2.1196,2.1239,0,0,2.1198,2.1198,0,0,0,0,0,0,0,0,2.1324,2.1323,2.1299,2.1296,2.1292,2.1267,2.1288,2.1278,2.1232,2.1254,2.1227,2.1225,2.1221,2.1219,2.1217,2.1238,2.1236,2.1198,2.1198,2.1198,2.1199,0,0,0,0,0,0,0,2.1325,2.1324,2.1318,2.1299,2.1294,2.1278,2.1274,2.1286,2.1249,2.1252,2.1247,2.1244,2.1218,2.1217,2.1216,2.1236,2.1198,2.1198,2.1199,2.1199,2.1289,2.1291,0,0,0,0,0,0,2.1331,2.1325,2.1319,2.1317,2.1303,2.128,2.1275,2.1277,2.1248,2.1242,2.1246,2.1241,2.1217,2.1215,2.1215,2.1262,2.1198,2.1199,2.1199,2.1287,2.1289,2.1292,0,0,0,0,0,0,2.1332,2.1331,2.132,2.132,2.1317,2.1282,2.1284,2.1277,2.1276,2.1244,2.1237,2.1251,2.1215,2.1214,2.1233,2.126,2.1199,2.12,2.1284,2.1288,2.129,2.1359,0,0,0,0,0,0,2.1332,2.1332,2.1347,2.132,2.1317,2.1339,2.1286,2.1278,2.1277,2.127,2.1247,2.1241,2.1214,2.1233,2.1234,2.126,2.12,2.1282,2.1286,2.1289,2.1354,2.1364,2.1372,0,0,0,0,0,2.1332,2.1368,2.1349,2.1348,2.1336,2.1341,2.1339,2.1306,2.1279,2.1295,2.1274,2.1242,2.1257,2.1235,2.1236,2.1263,2.128,2.1285,2.1289,2.135,2.1362,2.1372,0,0,0,0,0,0,2.14,2.1364,2.1342,2.137,2.1359,2.133,2.1348,2.132,2.1317,2.1311,2.1271,2.1266,2.1291,2.1279,2.1255,2.1303,2.1263,2.1269,2.1309,2.1321,2.133,2.1332,2.1201,0,0,0,0,0,2.1418,2.1425,2.1393,2.1421,2.1417,2.1384,2.1385,2.136,2.1347,2.1343,2.1323,2.1313,2.1315,2.1317,2.1317,2.1352,2.1346,2.1371,2.138,2.1388,2.1392,2.1409,2.142,2.1307,2.1307,2.1307,0,0,2.1456,2.1437,2.1444,2.1434,2.1423,2.1431,2.138,2.1391,2.1396,2.1344,2.1361,2.1347,2.1332,2.1359,2.137,2.135,2.1422,2.1394,2.14,2.14,2.1415,2.1426,2.1436,2.131,2.1309,2.1309,0,0,2.1528,2.1515,2.1536,2.1526,2.1509,2.1487,2.1492,2.1467,2.1455,2.1472,2.1432,2.1439,2.1444,2.1434,2.143,2.15,2.147,2.1501,2.1549,2.1566,2.1575,2.1582,2.1607,2.1616,2.1506,2.1506,2.1506,0,2.1577,2.1587,2.1551,2.1564,2.1561,2.1514,2.1535,2.1527,2.1512,2.1511,2.1488,2.1493,2.148,2.1504,2.152,2.1519,2.1524,2.1503,2.1576,2.1584,2.159,2.1613,2.1622,2.151,2.1509,2.1509,2.1509,0,2.1648,2.1656,2.1675,2.166,2.166,2.1677,2.1644,2.1648,2.1623,2.1604,2.1621,2.1603,2.1599,2.1603,2.158,2.1624,2.1612,2.1583,2.1543,2.1605,2.1626,2.1634,2.1515,2.1514,2.1513,2.1512,0,0,2.1762,2.1727,2.1735,2.1727,2.1705,2.1711,2.1726,2.1721,2.1725,2.1716,2.1728,2.1733,2.1706,2.1702,2.1677,2.1692,2.1748,2.1662,2.1661,2.1678,2.1794,2.1816,2.1826,2.1728,2.1729,2.1731,2.1796,0,2.1829,2.1852,2.182,2.1851,2.1857,2.1813,2.1826,2.1814,2.1796,2.1799,2.1779,2.1784,2.1749,2.1745,2.1758,2.1738,2.177,2.1733,2.1738,2.1739,2.1743,2.1837,2.186,2.1922,2.1803,2.1805,2.1806,0,2.191,2.1904,2.1935,2.1911,2.1912,2.1925,2.1918,2.1922,2.1907,2.1893,2.1888,2.1859,2.1872,2.1834,2.1852,2.1827,2.1827,2.1818,2.1819,2.1818,2.1776,2.1838,2.1941,2.195,2.1818,2.1817,2.1816,0,2.1989,2.1989,2.2008,2.2003,2.1975,2.1985,2.1974,2.1958,2.1957,2.1951,2.195,2.1946,2.1944,2.1942,2.1912,2.1887,2.1934,2.1893,2.1923,2.1923,2.1934,2.1934,2.2038,2.1935,2.1935,2.1935,2.1935,0,2.2067,2.2088,2.2043,2.2054,2.2076,2.204,2.2063,2.2047,2.2033,2.2041,2.2002,2.201,2.1971,2.1975,2.1952,2.197,2.197,2.1959,2.1952,2.1962,2.1963,2.1961,2.1956,2.1937,2.1937,2.1936,2.1936,0,2.2159,2.213,2.2147,2.2119,2.2113,2.213,2.2106,2.2116,2.2096,2.2106,2.2106,2.2075,2.2077,2.2048,2.2045,2.2029,2.2058,2.2044,2.2063,2.2058,2.2089,2.2087,2.2196,2.2208,2.2098,2.2099,2.21,0,2.221,2.2225,2.2199,2.2201,2.2192,2.2196,2.2195,2.216,2.216,2.2145,2.2156,2.2156,2.2153,2.216,2.2137,2.2134,2.212,2.2158,2.2119,2.2129,2.212,2.212,2.2121,2.2166,2.2168,2.2169,2.217,0,2.2305,2.2289,2.2289,2.2284,2.2283,2.2278,2.2269,2.2273,2.2235,2.2237,2.2239,2.2238,2.2234,2.2235,2.2228,2.2216,2.2187,2.2182,2.2189,2.2199,2.2209,2.2204,2.2085,2.218,2.2179,2.2178,2.2178,2.2177,2.2377,2.2388,2.2372,2.2372,2.2362,2.2356,2.2363,2.2343,2.2344,2.2339,2.2318,2.2324,2.2309,2.2296,2.2288,2.2292,2.2274,2.2283,2.2286,2.2289,2.2294,2.2209,2.2291,2.2291,2.229,2.229,2.229,0,2.2469,2.2456,2.2457,2.2447,2.2448,2.2419,2.2409,2.2411,2.2417,2.2405,2.2404,2.2406,2.2406,2.2383,2.238,2.2387,2.2374,2.2388,2.2387,2.2385,2.2311,2.2306,2.2399,2.2399,2.2399,2.2399,2.2399,2.2399,2.2517,2.2534,2.2517,2.2529,2.2516,2.2521,2.2517,2.2511,2.2501,2.2505,2.2505,2.249,2.2473,2.2469,2.2467,2.2461,2.2461,2.248,2.2469,2.2401,2.239,2.238,2.2374,2.248,2.2481,2.2542,2.2542,2.2543]}]]